User: anonymous   Login
Location: Black Creek
(40.9000°S, 175.5500°E)
Time: 19:47:32
(UTC+00:00)
Language:

Cosmos 1825 - Orbit

View from above orbital plane
View from above orbital plane
View from above satellite
View from above satellite

Ground track
Ground track

The orbit data is extracted from the following two-line orbital elements,

1 17566U 87024A   24277.13179088  .00089770  00000-0  15946-2 0  9993
2 17566  82.4928 147.1500 0001719 108.6427 251.5011 15.49855621 59649
Epoch (UTC): 03 October 2024 03:09:46
Eccentricity: 0.0001719
inclination: 82.4928°
perigee height: 416 km
apogee height: 418 km
right ascension of ascending node: 147.1500°
argument of perigee: 108.6427°
revolutions per day: 15.49855621
mean anomaly at epoch: 251.5011°
orbit number at epoch: 5964

The dashed part of the orbit path shows where the satellite is in the earth's shadow,  

DLR